TimeMST,TemperatureF,Dew PointF,Humidity,Sea Level PressureIn,VisibilityMPH,Wind Direction,Wind SpeedMPH,Gust SpeedMPH,PrecipitationIn,Events,Conditions,WindDirDegrees,DateUTC
12:53 AM,43.0,18.0,37,29.87,10.0,WNW,25.3,32.2,N/A,,Clear,300,2012-12-06 07:53:00
1:53 AM,41.0,19.0,41,29.87,10.0,WNW,21.9,28.8,N/A,,Clear,300,2012-12-06 08:53:00
2:53 AM,37.0,18.0,46,29.91,10.0,ESE,4.6,-,N/A,,Clear,110,2012-12-06 09:53:00
3:53 AM,28.9,17.1,61,29.95,10.0,WNW,9.2,-,N/A,,Clear,300,2012-12-06 10:53:00
4:53 AM,28.9,17.1,61,29.96,10.0,NW,6.9,-,N/A,,Clear,310,2012-12-06 11:53:00
5:53 AM,26.1,16.0,66,29.99,10.0,NW,10.4,-,N/A,,Clear,310,2012-12-06 12:53:00
6:53 AM,27.0,17.1,66,29.97,10.0,West,8.1,-,N/A,,Clear,280,2012-12-06 13:53:00
7:53 AM,28.0,18.0,66,29.98,10.0,West,3.5,-,N/A,,Clear,260,2012-12-06 14:53:00
8:53 AM,33.1,21.0,61,29.96,10.0,West,6.9,-,N/A,,Clear,270,2012-12-06 15:53:00
9:53 AM,36.0,21.0,55,29.95,10.0,West,5.8,-,N/A,,Clear,260,2012-12-06 16:53:00
10:53 AM,39.0,21.9,50,29.94,10.0,Calm,Calm,-,N/A,,Clear,0,2012-12-06 17:53:00
11:53 AM,42.1,21.0,43,29.90,10.0,Calm,Calm,-,N/A,,Clear,0,2012-12-06 18:53:00
12:53 PM,44.1,19.9,38,29.84,10.0,SW,5.8,-,N/A,,Clear,220,2012-12-06 19:53:00
1:53 PM,45.0,18.0,34,29.81,10.0,Variable,4.6,-,N/A,,Clear,0,2012-12-06 20:53:00
2:53 PM,45.0,15.1,30,29.81,10.0,SE,4.6,-,N/A,,Clear,140,2012-12-06 21:53:00
3:53 PM,44.1,15.1,31,29.83,10.0,Calm,Calm,-,N/A,,Clear,0,2012-12-06 22:53:00
4:53 PM,39.9,14.0,35,29.84,10.0,Calm,Calm,-,N/A,,Clear,0,2012-12-06 23:53:00
5:53 PM,34.0,12.9,42,29.89,10.0,WSW,5.8,-,N/A,,Clear,240,2012-12-07 00:53:00
6:53 PM,32.0,14.0,48,29.88,10.0,West,8.1,-,N/A,,Clear,270,2012-12-07 01:53:00
7:53 PM,32.0,14.0,48,29.86,10.0,SW,4.6,-,N/A,,Clear,220,2012-12-07 02:53:00
8:53 PM,36.0,14.0,41,29.81,10.0,SW,3.5,-,N/A,,Partly Cloudy,230,2012-12-07 03:53:00
9:53 PM,30.9,14.0,50,29.80,10.0,Calm,Calm,-,N/A,,Clear,0,2012-12-07 04:53:00
10:53 PM,28.9,16.0,58,29.81,10.0,NNW,8.1,-,N/A,,Clear,330,2012-12-07 05:53:00
11:53 PM,28.0,18.0,66,29.81,10.0,NW,11.5,-,N/A,,Clear,320,2012-12-07 06:53:00